Tracking 25709 objects as of 24-May-2022
HD Live streaming from Space Station
objects crossing your sky now

ARIANE 42P+3 R/B

Track ARIANE 42P+3 R/B now!
10-day predictions


NORAD ID: 23847
Int'l Code: 1996-022B
Perigee: 291.6 km
Apogee: 27,505.1 km
Inclination: 6.6 °
Period: 478.7 minutes
Semi major axis: 20269 km
RCS: 21.539 m2 (large)
Launch date: April 20, 1996
Source: France (FR)
Launch site: FRENCH GUIANA (FRGUI)

Note: This is a ROCKET BODY
aabbcc
Your satellite tracking list
Your tracking list is empty




NASA's NSSDC Master Catalog

Two Line Element Set (TLE):
1 23847U 96022B   22143.25892221  .00006849  00000-0  23774-2 0  9998
2 23847   6.6148 166.7482 6712973  82.5549 343.5300  3.00845722260178
Source of the keplerian elements: AFSPC